Погода в Гурульбе

Россия / Республика Бурятия     51°49′46″N   107°24′16″E
темп.,
°C
ветер,
м/с
пор.,
м/с
влажн.,
%
обл.,
%
осадки,
мм/ч
давл.,
гПа
погр.,
м
5 марта, пт
пт523:00−24с01890 0.0 104020
02:00−26в00910 0.0 104120
05:00−27всв11910 0.0 104119
08:00−27всв12933 0.0 104122
11:00−21св228517 0.0 1038267
14:00−15ссв228529 0.0 1034322
17:00−14ссв229197 0.0 1031207
20:00−18всв129796 0.0 103220
6 марта, сб
сб623:00−20всв129988 0.0 103021
02:00−21всв1210082 0.0 102921
05:00−21св1110099 0.0 102721
08:00−19юв119699 0.0 102933
11:00−12юз118387 0.0 1029281
14:00−7юз237980 0.1 1028447
17:00−5юз138134 0.0 1026377
20:00−10ююз129043 0.0 102721
7 марта, вс
вс723:00−13ююз12910 0.0 102621
02:00−14ююз12932 0.0 102621
05:00−16ююв019719 0.0 102520
08:00−16в009634 0.0 102520
11:00−8ююз028421 0.0 1022297
14:00−3юз147822 0.0 1019519
17:00−2юз257961 0.0 1018525
20:00−9ю128734 0.0 102021
8 марта, пн
пн823:00−11юз129072 0.0 102021
02:00−11юз119186 0.0 102021
05:00−9ююз1291100 0.0 102124
08:00−11зюз129183 0.0 102421
11:00−4юз128110 0.0 1024279
14:00−1сз577430 0.0 10251127
17:00−3с367857 0.0 1025610
20:00−10зюз018839 0.0 102921
9 марта, вт
вт923:00−12ююз118954 0.0 102921
02:00−13в119348 0.0 102721
05:00−15всв129611 0.0 102521
08:00−15всв129713 0.0 102443
11:00−9св228641 0.0 1020284
14:00−5с118470 0.1 1019317
17:00−4сз018699 0.0 1020172
20:00−7ссз119199 0.0 102324